Flag for Germany Weather past 2 weeks in Frankfurt, Hesse, Germany

Now
52 °F

Sunny.


Feels Like: 50 °F
Forecast: 44 / 67 °F
Wind: 6 mph from Southwest

Location: Frankfurt-M-Flughafen Airport

Current Time: Aug 20, 2014 at 9:10:04 AM

Latest Report: Aug 20, 2014 at 8:20 AM


Visibility: 10 mi

Pressure: 30.04 "Hg

Humidity: 82%

Dew point: 46 °F

Location of FrankfurtLocation

Historic Weather in Frankfurt — Graph

°F

Frankfurt temperature yesterday

Maximum temperature yesterday: 72 °F (at 3:50 PM)
Minimum temperature yesterday: 52 °F (at 3:50 AM)
Average temperature yesterday: 59 °F

Past Weeks' High & Low Weather Summary

 TemperatureHumidityPressure
High82 °F (Aug 8, 2:50 PM)100% (Aug 5, 7:20 AM)30.09 "Hg (Aug 5, 7:20 AM)
Low46 °F (Aug 20, 5:20 AM)33% (Aug 12, 6:20 PM)29.65 "Hg (Aug 13, 2:20 PM)
Average64 °F74%29.92 "Hg
* Reported Aug 5 7:20 AM — Aug 20 7:20 AM, Frankfurt, Weather by CustomWeather, © 2014

Note: Actual official high and low records may vary slightly from our data, if they occured in-between our weather recording intervals... More about our weather records

Advertising

Frankfurt weather history for previous 24 hours

 ConditionsComfort  
Time TempWeatherWind HumidityBarometerVisibility
7:20 AM
Aug 20
48 °FClear.3 mph94%30.04 "Hg10 mi
6:50 AM48 °FClear.3 mph87%30.04 "Hg10 mi
6:20 AM48 °FClear.6 mph87%30.04 "Hg10 mi
5:50 AM48 °FClear.5 mph87%30.04 "Hg10 mi
5:20 AM46 °FClear.5 mph93%30.04 "Hg10 mi
4:50 AM48 °FClear.1 mph87%30.01 "Hg10 mi
4:20 AM48 °FClear.3 mph94%30.01 "Hg10 mi
3:50 AM50 °FClear.6 mph88%30.01 "Hg10 mi
3:20 AM50 °FClear.1 mph88%30.01 "Hg10 mi
2:50 AM48 °FClear.2 mph94%30.01 "Hg10 mi
2:20 AM50 °FClear.2 mph88%30.01 "Hg10 mi
1:50 AM52 °FClear.2 mph82%30.01 "Hg10 mi
1:20 AM52 °FClear.2 mph88%30.01 "Hg10 mi
12:50 AM52 °FPassing clouds.5 mph88%30.01 "HgN/A
12:20 AM55 °FClear.6 mph77%29.98 "Hg10 mi
11:50 PM
Aug 19
57 °FClear.6 mph72%29.98 "Hg10 mi
11:20 PM57 °FClear.8 mph72%29.98 "Hg10 mi
10:50 PM59 °FPartly cloudy.8 mph77%29.98 "HgN/A
10:20 PM57 °FPassing clouds.3 mph82%29.98 "HgN/A
9:50 PM59 °FPassing clouds.5 mph77%29.95 "HgN/A
9:20 PM59 °FPartly sunny.3 mph77%29.95 "HgN/A
8:50 PM59 °FPartly sunny.3 mph77%29.95 "HgN/A
8:20 PM59 °FPartly sunny.6 mph77%29.92 "HgN/A
7:50 PM59 °FPartly sunny.7 mph77%29.92 "HgN/A
7:20 PM59 °FPartly sunny.7 mph82%29.92 "HgN/A
6:50 PM61 °FSprinkles. Partly sunny.9 mph72%29.92 "HgN/A
6:20 PM59 °FScattered showers. Partly sunny.12 mph72%29.92 "HgN/A
5:50 PM61 °FPartly sunny.12 mph72%29.92 "HgN/A
5:20 PM61 °FSprinkles. Partly sunny.17 mph72%29.89 "HgN/A
4:50 PM64 °FScattered showers. Broken clouds.20 mph56%29.89 "HgN/A
4:20 PM68 °FScattered clouds.21 mph46%29.86 "HgN/A
3:50 PM72 °FSunny.23 mph38%29.86 "Hg10 mi
3:20 PM70 °FSunny.16 mph50%29.86 "Hg10 mi
2:50 PM68 °FSunny.18 mph46%29.86 "Hg10 mi
2:20 PM70 °FSunny.20 mph43%29.86 "Hg10 mi
1:50 PM68 °FScattered clouds.17 mph49%29.86 "HgN/A
1:20 PM68 °FScattered clouds.18 mph49%29.86 "HgN/A
12:50 PM66 °FScattered clouds.17 mph60%29.89 "HgN/A
12:20 PM64 °FScattered clouds.12 mph68%29.89 "HgN/A
11:50 AM63 °FScattered clouds.9 mph77%29.89 "HgN/A
11:20 AM61 °FScattered clouds.10 mph72%29.89 "HgN/A
10:50 AM61 °FScattered clouds.8 mph83%29.89 "HgN/A
10:20 AM59 °FScattered clouds.7 mph82%29.89 "HgN/A
9:50 AM57 °FScattered clouds.9 mph88%29.89 "HgN/A
9:20 AM55 °FScattered clouds.7 mph94%29.89 "HgN/A
Weather by CustomWeather, © 2014

See weather overviewHow to use our weather pages